Frankfort, MI

6:51 AM EDT on May 28, 2017 (GMT -0400)
Frankfort

Weather History for KFKS - October, 2012

Change the Weather History Date:

Friday, October 19, 2012

  Actual Average (KMBL) Record (KMBL)
Temperature  
Mean Temperature 47 °F -  
Max Temperature 52 °F 53 °F 77 °F (1965)
Min Temperature 42 °F 39 °F 24 °F (1992)
Degree Days  
Heating Degree Days 18    
Moisture  
Dew Point 42 °F    
Average Humidity 81    
Maximum Humidity 90    
Minimum Humidity 71    
Precipitation  
Precipitation 0.00 in - - ()
Sea Level Pressure  
Sea Level Pressure 29.55 in    
Wind  
Wind Speed 6 mph (ESE)    
Max Wind Speed 9 mph    
Max Gust Speed -    
Visibility 10 miles    
Events Rain    
Averages and records for this station are not official NWS values.
T = Trace of Precipitation, MM = Missing Value Source: NWS Daily Summary

Daily Weather History Graph

Daily Weather History Graph

Search for Another Location

Airport or City:

Trip Planner

Search our weather history database for the weather conditions in past years. The results will help you decide how hot, cold, wet, or windy it might be!

Date:

Astronomy

Oct. 19, 2012 Rise Set
Actual Time 8:05 AM EDT 6:52 PM EDT
Civil Twilight 7:36 AM EDT 7:22 PM EDT
Nautical Twilight 7:02 AM EDT 7:56 PM EDT
Astronomical Twilight 6:28 AM EDT 8:29 PM EDT
Moon 12:56 PM EDT (10/19) 10:22 PM EDT (10/19)
Length of Visible Light 11h 46m
Length of Day
10h 46m
Waxing Crescent, 23% of the Moon is Illuminated
Oct 19
Waxing Crescent
Oct 21
First Quarter
Oct 29
Full
Nov 6
Last Quarter
Nov 13
New

Hourly Weather History & Observations

Time (EDT) Temp. Windchill Dew Point Humidity Pressure Visibility Wind Dir Wind Speed Gust Speed Precip Events Conditions
12:35 AM 46.4 °F 42.4 °F 41.9 °F 84% 29.53 in 10.0 mi SSE 8.1 mph - N/A   Mostly Cloudy
1:11 AM 46.4 °F 42.4 °F 41.9 °F 84% 29.53 in 10.0 mi SSE 8.1 mph - N/A   Mostly Cloudy
1:31 AM 46.4 °F 41.9 °F 41.9 °F 84% 29.53 in 10.0 mi SE 9.2 mph - N/A   Overcast
1:51 AM 46.4 °F 42.9 °F 41.9 °F 84% 29.53 in 10.0 mi SE 6.9 mph - N/A   Mostly Cloudy
2:11 AM 46.4 °F 42.4 °F 42.1 °F 85% 29.53 in 10.0 mi SE 8.1 mph - N/A   Mostly Cloudy
2:31 AM 46.4 °F 42.4 °F 41.9 °F 84% 29.53 in 10.0 mi SE 8.1 mph - N/A   Mostly Cloudy
2:51 AM 46.6 °F - 41.9 °F 84% 29.53 in 10.0 mi SE 6.9 mph - N/A   Light Drizzle
3:11 AM 46.4 °F 43.5 °F 42.1 °F 85% 29.53 in 10.0 mi SE 5.8 mph - N/A Rain Rain
3:32 AM 46.6 °F - 42.4 °F 85% 29.54 in 10.0 mi SE 6.9 mph - N/A   Light Drizzle
3:52 AM 46.4 °F 42.9 °F 42.1 °F 85% 29.53 in 10.0 mi ESE 6.9 mph - N/A   Light Drizzle
4:12 AM 46.4 °F 44.3 °F 42.1 °F 85% 29.53 in 10.0 mi SE 4.6 mph - N/A   Overcast
4:52 AM 46.4 °F 42.4 °F 41.5 °F 83% 29.53 in 10.0 mi SE 8.1 mph - N/A   Overcast
5:12 AM 46.4 °F 42.9 °F 41.4 °F 83% 29.53 in 10.0 mi SE 6.9 mph - N/A   Overcast
5:32 AM 46.4 °F 42.4 °F 41.2 °F 82% 29.53 in 10.0 mi SE 8.1 mph - N/A   Overcast
5:52 AM 46.0 °F 43.1 °F 41.0 °F 83% 29.54 in 10.0 mi SE 5.8 mph - N/A   Mostly Cloudy
6:12 AM 45.7 °F 42.7 °F 41.0 °F 84% 29.54 in 10.0 mi SE 5.8 mph - N/A   Scattered Clouds
6:33 AM 45.5 °F 42.5 °F 40.6 °F 83% 29.54 in 10.0 mi SE 5.8 mph - N/A   Scattered Clouds
6:53 AM 45.9 °F 42.3 °F 40.5 °F 81% 29.54 in 10.0 mi SE 6.9 mph - N/A   Mostly Cloudy
7:13 AM 46.0 °F 43.1 °F 40.5 °F 81% 29.55 in 10.0 mi ESE 5.8 mph - N/A   Scattered Clouds
7:33 AM 46.4 °F 43.5 °F 40.5 °F 80% 29.55 in 10.0 mi ESE 5.8 mph - N/A   Scattered Clouds
7:53 AM 46.4 °F 42.9 °F 40.5 °F 80% 29.55 in 10.0 mi East 6.9 mph - N/A   Mostly Cloudy
8:13 AM 46.4 °F 45.2 °F 40.3 °F 79% 29.55 in 10.0 mi ESE 3.5 mph - N/A   Overcast
8:33 AM 46.4 °F 42.9 °F 40.6 °F 80% 29.55 in 10.0 mi ESE 6.9 mph - N/A   Mostly Cloudy
8:53 AM 46.4 °F 43.5 °F 41.0 °F 81% 29.55 in 10.0 mi ESE 5.8 mph - N/A   Scattered Clouds
9:14 AM 46.9 °F - 41.2 °F 80% 29.55 in 10.0 mi East 6.9 mph - N/A   Mostly Cloudy
9:34 AM 47.3 °F - 41.4 °F 80% 29.55 in 10.0 mi East 5.8 mph - N/A   Overcast
9:54 AM 48.0 °F - 41.9 °F 79% 29.55 in 10.0 mi East 8.1 mph - N/A   Overcast
10:14 AM 48.7 °F - 41.9 °F 77% 29.55 in 10.0 mi ESE 6.9 mph - N/A   Overcast
10:34 AM 49.1 °F - 42.4 °F 78% 29.56 in 10.0 mi ESE 5.8 mph - N/A   Overcast
10:54 AM 49.1 °F - 42.8 °F 79% 29.55 in 10.0 mi East 5.8 mph - N/A Rain Light Rain
11:14 AM 49.1 °F - 43.3 °F 81% 29.56 in 10.0 mi East 5.8 mph - N/A   Light Drizzle
11:34 AM 49.1 °F - 44.1 °F 83% 29.55 in 10.0 mi East 5.8 mph - N/A   Light Drizzle
11:54 AM 49.5 °F - 44.2 °F 82% 29.55 in 10.0 mi East 3.5 mph - N/A Rain Light Rain
12:15 PM 50.0 °F - 44.4 °F 81% 29.55 in 10.0 mi East 4.6 mph - N/A   Light Drizzle
12:35 PM 50.4 °F - 44.8 °F 81% 29.55 in 10.0 mi ENE 5.8 mph - N/A   Light Drizzle
12:55 PM 51.6 °F - 45.5 °F 80% 29.54 in 10.0 mi ENE 3.5 mph - N/A   Overcast
1:15 PM 51.8 °F - 45.5 °F 79% 29.53 in 10.0 mi East 3.5 mph - N/A   Overcast
1:35 PM 51.8 °F - 45.5 °F 79% 29.53 in 10.0 mi East 5.8 mph - N/A   Light Drizzle
1:55 PM 51.3 °F - 45.1 °F 80% 29.53 in 10.0 mi ESE 4.6 mph - N/A Rain Light Rain
2:15 PM 51.3 °F - 44.1 °F 76% 29.53 in 10.0 mi ESE 5.8 mph - N/A Rain Light Rain
2:35 PM 51.4 °F - 43.2 °F 73% 29.53 in 10.0 mi SE 9.2 mph - N/A   Light Drizzle
3:11 PM 51.8 °F - 43.9 °F 74% 29.52 in 10.0 mi SE 8.1 mph - N/A   Overcast
3:31 PM 51.8 °F - 42.8 °F 71% 29.53 in 10.0 mi SE 6.9 mph - N/A   Overcast
3:51 PM 51.1 °F - 42.4 °F 72% 29.53 in 10.0 mi SE 8.1 mph - N/A   Overcast
4:11 PM 51.3 °F - 42.3 °F 71% 29.53 in 10.0 mi ESE 5.8 mph - N/A   Overcast
4:31 PM 51.1 °F - 42.4 °F 72% 29.53 in 10.0 mi SE 5.8 mph - N/A   Overcast
5:11 PM 52.0 °F - 43.0 °F 71% 29.54 in 10.0 mi ESE 6.9 mph - N/A   Scattered Clouds
5:31 PM 51.8 °F - 43.0 °F 72% 29.54 in 10.0 mi SSE 4.6 mph - N/A   Overcast
5:52 PM 51.8 °F - 43.2 °F 72% 29.54 in 10.0 mi East 3.5 mph - N/A   Mostly Cloudy
6:12 PM 51.4 °F - 43.0 °F 73% 29.55 in 10.0 mi ESE 3.5 mph - N/A   Mostly Cloudy
6:52 PM 49.5 °F - 43.7 °F 81% 29.56 in 10.0 mi Calm Calm - N/A   Clear
7:12 PM 49.5 °F - 43.7 °F 81% 29.56 in 10.0 mi Calm Calm - N/A   Mostly Cloudy
7:52 PM 47.5 °F - 43.0 °F 84% 29.57 in 10.0 mi Calm Calm - N/A   Overcast
8:12 PM 46.2 °F - 42.1 °F 85% 29.57 in 10.0 mi Calm Calm - N/A   Scattered Clouds
8:32 PM 45.1 °F - 41.9 °F 88% 29.57 in 10.0 mi Calm Calm - N/A   Scattered Clouds
8:53 PM 42.8 °F - 39.6 °F 88% 29.57 in 10.0 mi Calm Calm - N/A   Scattered Clouds
9:13 PM 43.3 °F - 40.3 °F 89% 29.57 in 10.0 mi Calm Calm - N/A   Scattered Clouds
9:33 PM 42.6 °F - 39.7 °F 90% 29.58 in 10.0 mi Calm Calm - N/A   Mostly Cloudy
10:13 PM 43.7 °F - 40.5 °F 88% 29.58 in 10.0 mi Calm Calm - N/A   Mostly Cloudy
10:33 PM 43.7 °F - 40.3 °F 88% 29.58 in 10.0 mi Calm Calm - N/A   Mostly Cloudy
10:53 PM 43.7 °F - 41.0 °F 90% 29.58 in 10.0 mi Calm Calm - N/A   Overcast
11:13 PM 44.8 °F - 41.7 °F 89% 29.58 in 10.0 mi Calm Calm - N/A   Overcast
11:34 PM 45.5 °F - 42.1 °F 88% 29.58 in 10.0 mi Calm Calm - N/A   Overcast
11:54 PM 45.0 °F - 41.7 °F 88% 29.58 in 7.0 mi Calm Calm - N/A   Overcast